Weather History for Batman, Turkey

Change the Weather History Date:

Monday, June 24, 2013

  Actual Average (LTCC) Record (LTCC)
Temperature  
Mean Temperature 80 °F -  
Max Temperature 102 °F 94 °F 101 °F (2013)
Min Temperature 59 °F 66 °F 60 °F (2010)
Cooling Degree Days 16    
Growing Degree Days 30 (Base 50)    
Moisture  
Dew Point 42 °F    
Average Humidity 31    
Maximum Humidity 72    
Minimum Humidity 7    
Precipitation  
Precipitation 0.00 in - - ()
Sea Level Pressure  
Sea Level Pressure 29.66 in    
Wind  
Wind Speed 4 mph ()    
Max Wind Speed 10 mph    
Max Gust Speed -    
Visibility 6.2 miles    
Events      
Averages and records for this station are not official NWS values.
T = Trace of Precipitation, MM = Missing Value Source: Averaged Metar Reports

Daily Weather History Graph

Daily Weather History Graph

Search for Another Location

Airport:

Trip Planner

Search our weather history database for the weather conditions in past years. The results will help you decide how hot, cold, wet, or windy it might be!

Date:

Astronomy

Jun. 24, 2013 Rise Set
Actual Time 4:54 AM EEST 7:41 PM EEST
Civil Twilight 4:22 AM EEST 8:13 PM EEST
Nautical Twilight 3:43 AM EEST 8:52 PM EEST
Astronomical Twilight 2:58 AM EEST 9:37 PM EEST
Moon 8:28 PM EEST (6/24) 5:54 AM EEST (6/24)
Length of Visible Light 15h 50m
Length of Day
14h 47m
Full, 99% of the Moon is Illuminated
Jun 24
Full
Jun 30
Last Quarter
Jul 8
New
Jul 16
First Quarter
Jul 22
Full

Hourly Weather History & Observations

Time (EEST) Temp. Dew Point Humidity Pressure Visibility Wind Dir Wind Speed Gust Speed Precip Events Conditions
12:20 AM 66.2 °F 48.2 °F 52% 29.68 in - NNE 4.6 mph - N/A   Clear
12:50 AM 68.0 °F 44.6 °F 43% 29.68 in - Variable 1.2 mph - N/A   Clear
1:20 AM 66.2 °F 44.6 °F 46% 29.68 in - Variable 1.2 mph - N/A   Clear
1:50 AM 64.4 °F 51.8 °F 64% 29.68 in - North 2.3 mph - N/A   Clear
2:20 AM 64.4 °F 51.8 °F 64% 29.68 in - Variable 2.3 mph - N/A   Clear
2:50 AM 62.6 °F 48.2 °F 59% 29.68 in - ENE 3.5 mph - N/A   Clear
3:20 AM 60.8 °F 50.0 °F 68% 29.68 in - North 4.6 mph - N/A   Clear
3:50 AM 60.8 °F 51.8 °F 72% 29.68 in - NNE 4.6 mph - N/A   Clear
4:20 AM 59.0 °F 48.2 °F 67% 29.68 in - NE 4.6 mph - N/A   Clear
4:50 AM 60.8 °F 46.4 °F 59% 29.68 in - NNE 3.5 mph - N/A   Clear
5:20 AM 59.0 °F 50.0 °F 72% 29.71 in - NNE 6.9 mph - N/A   Clear
5:50 AM 60.8 °F 51.8 °F 72% 29.71 in - NNE 5.8 mph - N/A   Clear
6:20 AM 64.4 °F 50.0 °F 59% 29.71 in - NNE 8.1 mph - N/A   Clear
6:50 AM 69.8 °F 46.4 °F 43% 29.71 in - NNE 6.9 mph - N/A   Clear
7:20 AM 73.4 °F 42.8 °F 33% 29.71 in - NNE 6.9 mph - N/A   Clear
7:50 AM 78.8 °F 41.0 °F 26% 29.71 in - NNE 5.8 mph - N/A   Clear
8:20 AM 82.4 °F 39.2 °F 21% 29.71 in - NE 4.6 mph - N/A   Clear
8:50 AM 86.0 °F 42.8 °F 22% 29.71 in - WNW 3.5 mph - N/A   Clear
9:20 AM 87.8 °F 41.0 °F 19% 29.71 in - WSW 4.6 mph - N/A   Clear
9:50 AM 89.6 °F 37.4 °F 16% 29.68 in - South 5.8 mph - N/A   Clear
10:20 AM 91.4 °F 42.8 °F 18% 29.68 in - SSW 5.8 mph - N/A   Clear
10:50 AM 93.2 °F 41.0 °F 16% 29.68 in 6.2 mi SSW 5.8 mph - N/A   Partly Cloudy
11:20 AM 95.0 °F 37.4 °F 13% 29.68 in 6.2 mi SW 6.9 mph - N/A   Partly Cloudy
11:50 AM 96.8 °F 37.4 °F 13% 29.68 in 6.2 mi SW 5.8 mph - N/A   Partly Cloudy
12:20 PM 98.6 °F 33.8 °F 10% 29.65 in 6.2 mi SSW 5.8 mph - N/A   Partly Cloudy
12:50 PM 98.6 °F 28.4 °F 8% 29.65 in 6.2 mi South 4.6 mph - N/A   Partly Cloudy
1:20 PM 100.4 °F 26.6 °F 7% 29.65 in 6.2 mi Variable 4.6 mph - N/A   Partly Cloudy
1:50 PM 100.4 °F 30.2 °F 9% 29.65 in 6.2 mi Variable 6.9 mph - N/A   Partly Cloudy
2:20 PM 100.4 °F 32.0 °F 9% 29.62 in 6.2 mi South 6.9 mph - N/A   Partly Cloudy
2:50 PM 100.4 °F 32.0 °F 9% 29.62 in 6.2 mi South 9.2 mph - N/A   Partly Cloudy
3:20 PM 100.4 °F 32.0 °F 9% 29.62 in 6.2 mi SSW 8.1 mph - N/A   Partly Cloudy
3:50 PM 102.2 °F 33.8 °F 9% 29.62 in 6.2 mi SSW 9.2 mph - N/A   Partly Cloudy
4:20 PM 100.4 °F 41.0 °F 13% 29.62 in 6.2 mi SW 8.1 mph - N/A   Partly Cloudy
4:50 PM 98.6 °F 39.2 °F 13% 29.59 in 6.2 mi SSW 10.4 mph - N/A   Partly Cloudy
5:20 PM 98.6 °F 39.2 °F 13% 29.59 in 6.2 mi SSW 9.2 mph - N/A   Partly Cloudy
5:50 PM 98.6 °F 39.2 °F 13% 29.59 in 6.2 mi SSW 6.9 mph - N/A   Partly Cloudy
6:20 PM 96.8 °F 41.0 °F 15% 29.59 in 6.2 mi SSW 4.6 mph - N/A   Partly Cloudy
6:50 PM 91.4 °F 46.4 °F 21% 29.59 in 6.2 mi South 5.8 mph - N/A   Partly Cloudy
7:20 PM 87.8 °F 44.6 °F 22% 29.62 in - SSW 5.8 mph - N/A   Clear
7:50 PM 84.2 °F 42.8 °F 23% 29.62 in - SSW 6.9 mph - N/A   Clear
8:20 PM 82.4 °F 42.8 °F 25% 29.62 in - South 4.6 mph - N/A   Clear
8:50 PM 84.2 °F 42.8 °F 23% 29.62 in - Variable 2.3 mph - N/A   Clear
9:20 PM 82.4 °F 41.0 °F 23% 29.62 in - Calm Calm - N/A   Clear
9:50 PM 78.8 °F 41.0 °F 26% 29.62 in - Variable 2.3 mph - N/A   Clear
10:20 PM 71.6 °F 50.0 °F 46% 29.65 in - NNE 4.6 mph - N/A   Clear
10:50 PM 73.4 °F 50.0 °F 44% 29.65 in - NNE 8.1 mph - N/A   Clear
11:20 PM 75.2 °F 42.8 °F 31% 29.65 in - NE 4.6 mph - N/A   Clear
11:50 PM 73.4 °F 44.6 °F 36% 29.65 in - Variable 1.2 mph - N/A   Clear